,,Stat5,,Stat1,,Stat2,,Stat3,,Stat4,,Wind1,,Wind1,
time,status,PA1M_AVG,status,PR1M_SUM,status,RH1M_AVG,status,SR1M_AVG,status,TA1M_AVG,status,W1dAve1m,status,W1sAve1m,
2001-01-10, 00:00:01,VALID,917.855,VALID,0,VALID,89.7651,VALID,0.0169808,VALID,19.2654,VALID,204,VALID,0.873698,
2001-01-10, 00:01:01,VALID,917.848,VALID,0,VALID,90.8892,VALID,0,VALID,19.1975,VALID,202,VALID,0.83277,
2001-01-10, 00:02:00,VALID,917.84,VALID,0,VALID,91.2427,VALID,0,VALID,19.1463,VALID,208,VALID,1.14104,
2001-01-10, 00:03:00,VALID,917.821,VALID,0,VALID,92.0693,VALID,0,VALID,19.1006,VALID,204,VALID,1.08347,
2001-01-10, 00:04:00,VALID,917.827,VALID,0.2,VALID,92.541,VALID,0.0339617,VALID,19.0556,VALID,180,VALID,0.99668,
2001-01-10, 00:05:00,VALID,917.829,VALID,0,VALID,92.9963,VALID,0.0169808,VALID,19.0139,VALID,180,VALID,0.806424,
2001-01-10, 00:06:00,VALID,917.842,VALID,0,VALID,93.6054,VALID,-0.0169808,VALID,18.9848,VALID,192,VALID,0.774493,
2001-01-10, 00:07:00,VALID,917.852,VALID,0,VALID,94.0352,VALID,-0.0169808,VALID,18.9719,VALID,204,VALID,0.925781,
2001-01-10, 00:08:00,VALID,917.844,VALID,0,VALID,94.6061,VALID,0,VALID,18.9654,VALID,203,VALID,0.806818,
2001-01-10, 00:09:00,VALID,917.852,VALID,0,VALID,95.364,VALID,-0.0509425,VALID,18.9975,VALID,204,VALID,0.819901,
2001-01-10, 00:10:00,VALID,917.866,VALID,0,VALID,96.0074,VALID,0,VALID,19.043,VALID,202,VALID,1.26563,
2001-01-10, 00:11:00,VALID,917.868,VALID,0,VALID,96.1269,VALID,-0.0169808,VALID,19.0467,VALID,201,VALID,1.13302,
2001-01-10, 00:12:00,VALID,917.866,VALID,0,VALID,96.2655,VALID,-0.0339617,VALID,19.0556,VALID,201,VALID,0.957442,
2001-01-10, 00:13:00,VALID,917.882,VALID,0,VALID,96.2655,VALID,0,VALID,19.0527,VALID,192,VALID,1.28331,
2001-01-10, 00:14:00,VALID,917.874,VALID,0.2,VALID,96.2261,VALID,0,VALID,19.0402,VALID,192,VALID,1.34876,
2001-01-10, 00:15:00,VALID,917.893,VALID,0,VALID,96.1142,VALID,0,VALID,19.001,VALID,193,VALID,1.72086,
2001-01-10, 00:16:00,VALID,917.889,VALID,0,VALID,96.0036,VALID,-0.0169808,VALID,18.9721,VALID,183,VALID,1.51727,
2001-01-10, 00:17:00,VALID,917.879,VALID,0,VALID,95.9883,VALID,-0.0169808,VALID,18.9468,VALID,187,VALID,1.30918,
2001-01-10, 00:18:00,VALID,917.879,VALID,0,VALID,96.2109,VALID,-0.0679233,VALID,18.9279,VALID,211,VALID,0.870443,
2001-01-10, 00:19:00,VALID,917.884,VALID,0,VALID,96.3533,VALID,0,VALID,18.9013,VALID,203,VALID,0.8769,
2001-01-10, 00:20:00,VALID,917.872,VALID,0,VALID,96.4258,VALID,-0.0339617,VALID,18.8921,VALID,207,VALID,1.01933,
2001-01-10, 00:21:00,VALID,917.868,VALID,0,VALID,96.5173,VALID,0,VALID,18.8462,VALID,211,VALID,1.29442,
2001-01-10, 00:22:00,VALID,917.856,VALID,0,VALID,96.5657,VALID,-0.0509425,VALID,18.8047,VALID,216,VALID,1.41596,
2001-01-10, 00:23:00,VALID,917.856,VALID,0,VALID,96.7437,VALID,-0.0509425,VALID,18.7689,VALID,212,VALID,1.16118,
2001-01-10, 00:24:00,VALID,917.84,VALID,0,VALID,96.8708,VALID,-0.0169808,VALID,18.7269,VALID,204,VALID,1.26228,
2001-01-10, 00:25:00,VALID,917.832,VALID,0,VALID,97.0387,VALID,-0.0169808,VALID,18.6819,VALID,185,VALID,1.39944,
2001-01-10, 00:26:00,VALID,917.832,VALID,0,VALID,97.2332,VALID,-0.0169808,VALID,18.672,VALID,183,VALID,1.41081,
2001-01-10, 00:27:00,VALID,917.855,VALID,0,VALID,97.321,VALID,-0.0339617,VALID,18.6722,VALID,185,VALID,1.22348,
2001-01-10, 00:28:00,VALID,917.851,VALID,0,VALID,97.0578,VALID,-0.0339617,VALID,18.6369,VALID,185,VALID,1.67722,
2001-01-10, 00:29:00,VALID,917.855,VALID,0,VALID,97.0425,VALID,-0.0169808,VALID,18.6173,VALID,188,VALID,1.40308,
2001-01-10, 00:30:00,VALID,917.868,VALID,0,VALID,96.9179,VALID,-0.0169808,VALID,18.6076,VALID,192,VALID,1.33848,
2001-01-10, 00:31:00,VALID,917.874,VALID,0,VALID,96.75,VALID,-0.0169808,VALID,18.5913,VALID,204,VALID,1.16526,
2001-01-10, 00:32:00,VALID,917.871,VALID,0.2,VALID,96.5669,VALID,-0.0339617,VALID,18.6046,VALID,200,VALID,0.864784,
2001-01-10, 00:33:00,VALID,917.878,VALID,0,VALID,95.9476,VALID,-0.0339617,VALID,18.5883,VALID,199,VALID,1.29983,
2001-01-10, 00:34:00,VALID,917.867,VALID,0,VALID,95.1593,VALID,-0.0169808,VALID,18.5627,VALID,215,VALID,1.24299,
2001-01-10, 00:35:00,VALID,917.871,VALID,0,VALID,94.8286,VALID,-0.0169808,VALID,18.559,VALID,193,VALID,1.36581,
2001-01-10, 00:36:00,VALID,917.853,VALID,0,VALID,94.5934,VALID,-0.0339617,VALID,18.5532,VALID,188,VALID,1.15137,
2001-01-10, 00:37:00,VALID,917.837,VALID,0,VALID,94.3556,VALID,-0.0169808,VALID,18.5304,VALID,197,VALID,1.33943,
2001-01-10, 00:38:00,VALID,917.827,VALID,0,VALID,93.819,VALID,-0.0509425,VALID,18.5179,VALID,198,VALID,1.38041,
2001-01-10, 00:39:00,VALID,917.82,VALID,0,VALID,93.7872,VALID,-0.0169808,VALID,18.5112,VALID,229,VALID,1.26419,
2001-01-10, 00:40:00,VALID,917.819,VALID,0,VALID,94.7803,VALID,-0.0679233,VALID,18.5304,VALID,215,VALID,1.60625,
2001-01-10, 00:41:00,VALID,917.83,VALID,0,VALID,95.0143,VALID,-0.0339617,VALID,18.5045,VALID,198,VALID,1.18359,
2001-01-10, 00:42:00,VALID,917.835,VALID,0,VALID,93.8482,VALID,-0.0169808,VALID,18.4628,VALID,186,VALID,1.30769,
2001-01-10, 00:43:00,VALID,917.816,VALID,0,VALID,93.3841,VALID,-0.0339617,VALID,18.4563,VALID,211,VALID,1.22081,
2001-01-10, 00:44:00,VALID,917.812,VALID,0,VALID,94.4599,VALID,-0.0169808,VALID,18.4988,VALID,206,VALID,1.13141,
2001-01-10, 00:45:00,VALID,917.796,VALID,0,VALID,95.013,VALID,-0.0169808,VALID,18.4787,VALID,199,VALID,1.14283,
2001-01-10, 00:46:00,VALID,917.782,VALID,0,VALID,94.5959,VALID,-0.0169808,VALID,18.4439,VALID,197,VALID,1.32601,
2001-01-10, 00:47:00,VALID,917.756,VALID,0,VALID,94.1865,VALID,-0.0339617,VALID,18.4014,VALID,198,VALID,1.26843,
2001-01-10, 00:48:00,VALID,917.746,VALID,0,VALID,94.0682,VALID,0,VALID,18.4046,VALID,206,VALID,1.46354,
2001-01-10, 00:49:00,VALID,917.722,VALID,0,VALID,94.3353,VALID,-0.0339617,VALID,18.4182,VALID,218,VALID,1.53602,
2001-01-10, 00:50:00,VALID,917.717,VALID,0,VALID,94.4675,VALID,0,VALID,18.4148,VALID,211,VALID,1.60938,
2001-01-10, 00:51:00,VALID,917.685,VALID,0,VALID,93.9767,VALID,0,VALID,18.3793,VALID,203,VALID,1.76858,
2001-01-10, 00:52:00,VALID,917.648,VALID,0,VALID,93.997,VALID,-0.0509425,VALID,18.3892,VALID,198,VALID,1.61398,
2001-01-10, 00:53:00,VALID,917.618,VALID,0,VALID,94.0123,VALID,-0.0849042,VALID,18.3961,VALID,220,VALID,1.57442,
2001-01-10, 00:54:00,VALID,917.609,VALID,0,VALID,93.4299,VALID,-0.0679233,VALID,18.3961,VALID,202,VALID,1.33498,
2001-01-10, 00:55:00,VALID,917.596,VALID,0,VALID,93.2379,VALID,-0.0679233,VALID,18.4058,VALID,205,VALID,1.16526,
2001-01-10, 00:56:00,VALID,917.584,VALID,0,VALID,93.0929,VALID,-0.0509425,VALID,18.4118,VALID,205,VALID,1.05617,
2001-01-10, 00:57:00,VALID,917.569,VALID,0,VALID,92.6669,VALID,-0.0169808,VALID,18.3984,VALID,201,VALID,1.26162,
2001-01-10, 00:58:00,VALID,917.545,VALID,0,VALID,92.4762,VALID,-0.0339617,VALID,18.4185,VALID,194,VALID,1.10116,
2001-01-10, 00:59:00,VALID,917.552,VALID,0,VALID,92.171,VALID,-0.0679233,VALID,18.4083,VALID,192,VALID,1.1136,
2001-01-10, 01:00:00,VALID,917.531,VALID,0,VALID,91.979,VALID,0,VALID,18.4051,VALID,190,VALID,1.42882,
2001-01-10, 01:01:00,VALID,917.5,VALID,0,VALID,92.8081,VALID,-0.0339617,VALID,18.4023,VALID,186,VALID,0.988982,
2001-01-10, 01:02:00,VALID,917.468,VALID,0,VALID,93.0306,VALID,-0.0509425,VALID,18.3834,VALID,194,VALID,1.28125,
2001-01-10, 01:03:00,VALID,917.445,VALID,0,VALID,93.2976,VALID,-0.0849042,VALID,18.3571,VALID,191,VALID,0.883594,
2001-01-10, 01:04:00,VALID,917.427,VALID,0,VALID,92.7826,VALID,-0.0339617,VALID,18.3541,VALID,193,VALID,1.18257,
2001-01-10, 01:05:00,VALID,917.399,VALID,0,VALID,93.2887,VALID,-0.0339617,VALID,18.3573,VALID,190,VALID,0.926432,
2001-01-10, 01:06:00,VALID,917.392,VALID,0,VALID,93.3574,VALID,-0.0509425,VALID,18.3603,VALID,183,VALID,1.15337,
2001-01-10, 01:07:00,VALID,917.366,VALID,0,VALID,93.3434,VALID,-0.0509425,VALID,18.3414,VALID,187,VALID,0.936523,
2001-01-10, 01:08:00,VALID,917.36,VALID,0,VALID,93.6588,VALID,-0.101885,VALID,18.3283,VALID,183,VALID,0.858141,
2001-01-10, 01:09:00,VALID,917.347,VALID,0,VALID,93.6104,VALID,-0.0679233,VALID,18.3156,VALID,186,VALID,1.09149,
2001-01-10, 01:10:00,VALID,917.33,VALID,0,VALID,93.9818,VALID,-0.0339617,VALID,18.3091,VALID,193,VALID,1.37676,
2001-01-10, 01:11:00,VALID,917.305,VALID,0,VALID,94.1992,VALID,-0.101885,VALID,18.2992,VALID,193,VALID,1.27163,
2001-01-10, 01:12:00,VALID,917.291,VALID,0,VALID,93.6422,VALID,-0.0679233,VALID,18.2801,VALID,194,VALID,1.41807,
2001-01-10, 01:13:00,VALID,917.279,VALID,0,VALID,93.557,VALID,-0.0679233,VALID,18.29,VALID,198,VALID,1.27778,
2001-01-10, 01:14:00,VALID,917.271,VALID,0,VALID,93.9309,VALID,-0.0679233,VALID,18.2962,VALID,196,VALID,0.928886,
2001-01-10, 01:15:00,VALID,917.259,VALID,0,VALID,93.1883,VALID,-0.0339617,VALID,18.2893,VALID,184,VALID,1.19827,
2001-01-10, 01:16:00,VALID,917.261,VALID,0,VALID,93.1781,VALID,-0.0169808,VALID,18.2994,VALID,173,VALID,1.13408,
2001-01-10, 01:17:00,VALID,917.263,VALID,0,VALID,93.6219,VALID,-0.0679233,VALID,18.2994,VALID,166,VALID,1.21913,
2001-01-10, 01:18:00,VALID,917.265,VALID,0,VALID,93.7503,VALID,-0.0339617,VALID,18.2955,VALID,176,VALID,1.42546,
2001-01-10, 01:19:00,VALID,917.273,VALID,0,VALID,94.2068,VALID,-0.0679233,VALID,18.2992,VALID,172,VALID,1.17441,
2001-01-10, 01:20:00,VALID,917.294,VALID,0,VALID,94.2539,VALID,-0.0339617,VALID,18.3027,VALID,158,VALID,1.05409,
2001-01-10, 01:21:00,VALID,917.304,VALID,0,VALID,94.5552,VALID,0.0849042,VALID,18.2884,VALID,134,VALID,1.18887,
2001-01-10, 01:22:00,VALID,917.309,VALID,0,VALID,94.7867,VALID,0.0849042,VALID,18.2817,VALID,139,VALID,1.07381,
2001-01-10, 01:23:00,VALID,917.312,VALID,0,VALID,94.2068,VALID,0.0849042,VALID,18.2268,VALID,157,VALID,1.33141,
2001-01-10, 01:24:00,VALID,917.294,VALID,0,VALID,94.1903,VALID,0.0339617,VALID,18.1915,VALID,157,VALID,1.12711,
2001-01-10, 01:25:00,VALID,917.302,VALID,0,VALID,94.2869,VALID,0.0509425,VALID,18.1493,VALID,166,VALID,0.953906,
2001-01-10, 01:26:00,VALID,917.306,VALID,0,VALID,94.5629,VALID,0.0509425,VALID,18.1071,VALID,183,VALID,0.537326,
2001-01-10, 01:27:00,VALID,917.308,VALID,0,VALID,94.9342,VALID,0.0509425,VALID,18.0976,VALID,208,VALID,0.552154,
2001-01-10, 01:28:00,VALID,917.289,VALID,0,VALID,95.3207,VALID,0.0679233,VALID,18.0914,VALID,212,VALID,0.457237,
2001-01-10, 01:29:00,VALID,917.262,VALID,0,VALID,94.9164,VALID,0.0339617,VALID,18.0849,VALID,214,VALID,0.972538,
2001-01-10, 01:30:00,VALID,917.235,VALID,0,VALID,94.7918,VALID,0.0849042,VALID,18.0884,VALID,194,VALID,1,
2001-01-10, 01:31:00,VALID,917.217,VALID,0,VALID,94.8541,VALID,0.0509425,VALID,18.0817,VALID,183,VALID,0.536523,
2001-01-10, 01:32:00,VALID,917.229,VALID,0,VALID,95.0194,VALID,0.0849042,VALID,18.0847,VALID,170,VALID,0.538651,
2001-01-10, 01:33:00,VALID,917.217,VALID,0,VALID,94.7816,VALID,0.0679233,VALID,18.0946,VALID,182,VALID,0.574013,
2001-01-10, 01:34:00,VALID,917.2,VALID,0,VALID,94.6277,VALID,0.0509425,VALID,18.0941,VALID,177,VALID,0.596834,
2001-01-10, 01:35:00,VALID,917.199,VALID,0,VALID,94.3848,VALID,0.0679233,VALID,18.1013,VALID,179,VALID,0.739583,
2001-01-10, 01:36:00,VALID,917.199,VALID,0,VALID,94.0199,VALID,0,VALID,18.1082,VALID,188,VALID,0.699958,
2001-01-10, 01:37:00,VALID,917.197,VALID,0,VALID,94.0949,VALID,0,VALID,18.111,VALID,196,VALID,0.415913,
2001-01-10, 01:38:00,VALID,917.182,VALID,0,VALID,94.0466,VALID,0,VALID,18.1269,VALID,180,VALID,0.423438,
2001-01-10, 01:39:00,VALID,917.178,VALID,0,VALID,94.2119,VALID,0,VALID,18.1629,VALID,168,VALID,0.550347,
2001-01-10, 01:40:00,VALID,917.165,VALID,0,VALID,93.7783,VALID,0,VALID,18.1659,VALID,192,VALID,0.686867,
2001-01-10, 01:41:00,VALID,917.159,VALID,0,VALID,93.2188,VALID,-0.0169808,VALID,18.1689,VALID,200,VALID,1.04544,
2001-01-10, 01:42:00,VALID,917.146,VALID,0,VALID,93.2531,VALID,0,VALID,18.1989,VALID,210,VALID,1.14442,
2001-01-10, 01:43:00,VALID,917.143,VALID,0,VALID,92.8538,VALID,0,VALID,18.2145,VALID,200,VALID,1.0682,
2001-01-10, 01:44:00,VALID,917.126,VALID,0,VALID,92.5944,VALID,0,VALID,18.2335,VALID,184,VALID,0.893298,
2001-01-10, 01:45:00,VALID,917.134,VALID,0,VALID,92.4952,VALID,0,VALID,18.2598,VALID,177,VALID,0.757813,
2001-01-10, 01:46:00,VALID,917.14,VALID,0,VALID,92.7737,VALID,-0.0169808,VALID,18.2593,VALID,169,VALID,1.07893,
2001-01-10, 01:47:00,VALID,917.124,VALID,0,VALID,93.2035,VALID,-0.0169808,VALID,18.2692,VALID,170,VALID,0.753689,
2001-01-10, 01:48:00,VALID,917.113,VALID,0,VALID,92.8564,VALID,0,VALID,18.2432,VALID,172,VALID,0.938117,
2001-01-10, 01:49:00,VALID,917.108,VALID,0,VALID,92.6199,VALID,0,VALID,18.2009,VALID,184,VALID,1.17126,
2001-01-10, 01:50:00,VALID,917.096,VALID,0,VALID,92.8475,VALID,0,VALID,18.1816,VALID,178,VALID,1.06968,
2001-01-10, 01:51:00,VALID,917.076,VALID,0,VALID,92.9403,VALID,0.0169808,VALID,18.143,VALID,189,VALID,0.883203,
2001-01-10, 01:52:00,VALID,917.055,VALID,0,VALID,93.1094,VALID,0,VALID,18.1306,VALID,187,VALID,1.06891,
2001-01-10, 01:53:00,VALID,917.028,VALID,0,VALID,93.2315,VALID,0,VALID,18.1142,VALID,184,VALID,0.860978,
2001-01-10, 01:54:00,VALID,917.003,VALID,0,VALID,93.4846,VALID,0,VALID,18.1045,VALID,183,VALID,1.01985,
2001-01-10, 01:55:00,VALID,916.98,VALID,0,VALID,93.3167,VALID,0,VALID,18.0918,VALID,179,VALID,1.45573,
2001-01-10, 01:56:00,VALID,916.951,VALID,0,VALID,93.2836,VALID,0,VALID,18.0757,VALID,182,VALID,1.3511,
2001-01-10, 01:57:00,VALID,916.939,VALID,0,VALID,93.5659,VALID,0,VALID,18.0886,VALID,167,VALID,1.43066,
2001-01-10, 01:58:00,VALID,916.911,VALID,0,VALID,93.7808,VALID,-0.0169808,VALID,18.0916,VALID,180,VALID,1.08655,
2001-01-10, 01:59:00,VALID,916.901,VALID,0,VALID,94.2869,VALID,-0.0169808,VALID,18.0946,VALID,203,VALID,1.16206,
2001-01-10, 02:00:00,VALID,916.895,VALID,0,VALID,94.2183,VALID,-0.0169808,VALID,18.0854,VALID,190,VALID,1.12171,
2001-01-10, 02:01:00,VALID,916.902,VALID,0,VALID,94.4077,VALID,-0.0169808,VALID,18.0826,VALID,170,VALID,1.11641,
2001-01-10, 02:02:00,VALID,916.903,VALID,0,VALID,94.4967,VALID,-0.0169808,VALID,18.0821,VALID,157,VALID,0.971094,
2001-01-10, 02:03:00,VALID,916.901,VALID,0,VALID,94.5756,VALID,-0.0169808,VALID,18.0791,VALID,185,VALID,0.954928,
2001-01-10, 02:04:00,VALID,916.901,VALID,0,VALID,94.5285,VALID,0,VALID,18.0662,VALID,201,VALID,1.03475,
2001-01-10, 02:05:00,VALID,916.891,VALID,0,VALID,94.8363,VALID,0,VALID,18.0688,VALID,201,VALID,1.21775,
2001-01-10, 02:06:00,VALID,916.875,VALID,0,VALID,94.9876,VALID,-0.0339617,VALID,18.0824,VALID,198,VALID,0.841146,
2001-01-10, 02:07:00,VALID,916.864,VALID,0,VALID,94.8541,VALID,-0.0169808,VALID,18.0987,VALID,199,VALID,1.00781,
2001-01-10, 02:08:00,VALID,916.835,VALID,0,VALID,94.9088,VALID,0,VALID,18.0819,VALID,202,VALID,0.822716,
2001-01-10, 02:09:00,VALID,916.824,VALID,0,VALID,94.896,VALID,0,VALID,18.0858,VALID,209,VALID,0.947483,
2001-01-10, 02:10:00,VALID,916.808,VALID,0,VALID,94.8464,VALID,-0.0339617,VALID,18.0658,VALID,204,VALID,1.10004,
2001-01-10, 02:11:00,VALID,916.791,VALID,0,VALID,94.554,VALID,-0.0169808,VALID,18.0568,VALID,204,VALID,1.16126,
2001-01-10, 02:12:00,VALID,916.779,VALID,0,VALID,94.5082,VALID,0,VALID,18.0598,VALID,190,VALID,0.951858,
2001-01-10, 02:13:00,VALID,916.763,VALID,0,VALID,94.5209,VALID,-0.0169808,VALID,18.0565,VALID,168,VALID,1.09836,
2001-01-10, 02:14:00,VALID,916.751,VALID,0,VALID,94.3009,VALID,0,VALID,18.0496,VALID,163,VALID,0.830592,
2001-01-10, 02:15:00,VALID,916.738,VALID,0,VALID,94.3086,VALID,-0.0169808,VALID,18.063,VALID,169,VALID,1.15987,
2001-01-10, 02:16:00,VALID,916.736,VALID,0,VALID,94.5171,VALID,-0.0339617,VALID,18.0561,VALID,187,VALID,1.10156,
2001-01-10, 02:17:00,VALID,916.737,VALID,0,VALID,94.835,VALID,0,VALID,18.0369,VALID,187,VALID,0.862753,
2001-01-10, 02:18:00,VALID,916.743,VALID,0,VALID,94.9901,VALID,0,VALID,18.0438,VALID,181,VALID,0.676258,
2001-01-10, 02:19:00,VALID,916.74,VALID,0,VALID,94.9978,VALID,-0.0169808,VALID,18.0212,VALID,182,VALID,0.416667,
2001-01-10, 02:20:00,VALID,916.739,VALID,0,VALID,94.8388,VALID,0,VALID,18.021,VALID,182,VALID,0.73902,
2001-01-10, 02:21:00,VALID,916.718,VALID,0,VALID,94.4535,VALID,-0.0169808,VALID,18.0081,VALID,176,VALID,0.940321,
2001-01-10, 02:22:00,VALID,916.69,VALID,0,VALID,94.2424,VALID,-0.0169808,VALID,17.9982,VALID,187,VALID,0.75621,
2001-01-10, 02:23:00,VALID,916.663,VALID,0,VALID,94.0975,VALID,0,VALID,17.9947,VALID,196,VALID,0.741039,
2001-01-10, 02:24:00,VALID,916.662,VALID,0,VALID,93.6524,VALID,0,VALID,18.0145,VALID,184,VALID,0.931641,
2001-01-10, 02:25:00,VALID,916.662,VALID,0,VALID,93.4604,VALID,0,VALID,18.0339,VALID,176,VALID,0.740954,
2001-01-10, 02:26:00,VALID,916.661,VALID,0,VALID,93.4642,VALID,0,VALID,18.0593,VALID,187,VALID,0.586589,
2001-01-10, 02:27:00,VALID,916.632,VALID,0,VALID,93.0408,VALID,0,VALID,18.0655,VALID,206,VALID,1.3016,
2001-01-10, 02:28:00,VALID,916.609,VALID,0,VALID,92.9187,VALID,0,VALID,18.0946,VALID,207,VALID,0.881641,
2001-01-10, 02:29:00,VALID,916.601,VALID,0,VALID,93.0624,VALID,0.0509425,VALID,18.1137,VALID,213,VALID,0.891242,
2001-01-10, 02:30:00,VALID,916.595,VALID,0,VALID,92.8996,VALID,0.0169808,VALID,18.1237,VALID,210,VALID,1.0882,
2001-01-10, 02:31:00,VALID,916.564,VALID,0,VALID,92.981,VALID,0,VALID,18.1336,VALID,205,VALID,1.14453,
2001-01-10, 02:32:00,VALID,916.537,VALID,0,VALID,93.0141,VALID,0,VALID,18.1204,VALID,207,VALID,0.953926,
2001-01-10, 02:33:00,VALID,916.522,VALID,0,VALID,92.8577,VALID,0,VALID,18.1077,VALID,198,VALID,0.994721,
2001-01-10, 02:34:00,VALID,916.512,VALID,0,VALID,92.6339,VALID,0,VALID,18.1045,VALID,208,VALID,1.05903,
2001-01-10, 02:35:00,VALID,916.496,VALID,0,VALID,92.6504,VALID,-0.0169808,VALID,18.1209,VALID,208,VALID,0.978165,
2001-01-10, 02:36:00,VALID,916.502,VALID,0,VALID,92.569,VALID,-0.0339617,VALID,18.1276,VALID,206,VALID,0.825802,
2001-01-10, 02:37:00,VALID,916.5,VALID,0,VALID,92.4698,VALID,0.0169808,VALID,18.1534,VALID,206,VALID,0.910262,
2001-01-10, 02:38:00,VALID,916.496,VALID,0,VALID,92.2918,VALID,0,VALID,18.1763,VALID,203,VALID,1.05393,
2001-01-10, 02:39:00,VALID,916.467,VALID,0,VALID,92.4431,VALID,-0.0169808,VALID,18.1795,VALID,196,VALID,1.05342,
2001-01-10, 02:40:00,VALID,916.451,VALID,0,VALID,91.6929,VALID,-0.0169808,VALID,18.1823,VALID,198,VALID,1.31445,
2001-01-10, 02:41:00,VALID,916.444,VALID,0,VALID,90.7226,VALID,0,VALID,18.2346,VALID,198,VALID,1.23417,
2001-01-10, 02:42:00,VALID,916.428,VALID,0,VALID,90.345,VALID,-0.0169808,VALID,18.2953,VALID,196,VALID,1.06895,
2001-01-10, 02:43:00,VALID,916.402,VALID,0,VALID,90.247,VALID,-0.0169808,VALID,18.3537,VALID,209,VALID,0.86801,
2001-01-10, 02:44:00,VALID,916.382,VALID,0,VALID,90.4187,VALID,-0.0169808,VALID,18.3926,VALID,204,VALID,0.730263,
2001-01-10, 02:45:00,VALID,916.363,VALID,0,VALID,90.3043,VALID,-0.0169808,VALID,18.4056,VALID,207,VALID,0.911951,
2001-01-10, 02:46:00,VALID,916.361,VALID,0,VALID,90.6222,VALID,-0.0169808,VALID,18.412,VALID,203,VALID,0.943945,
2001-01-10, 02:47:00,VALID,916.361,VALID,0,VALID,90.9452,VALID,-0.0169808,VALID,18.3959,VALID,198,VALID,0.932726,
2001-01-10, 02:48:00,VALID,916.355,VALID,0,VALID,90.9515,VALID,-0.0339617,VALID,18.3698,VALID,193,VALID,1.02555,
2001-01-10, 02:49:00,VALID,916.355,VALID,0,VALID,90.8193,VALID,-0.0169808,VALID,18.37,VALID,193,VALID,0.951069,
2001-01-10, 02:50:00,VALID,916.33,VALID,0,VALID,90.7201,VALID,0,VALID,18.3601,VALID,185,VALID,1.06368,
2001-01-10, 02:51:00,VALID,916.323,VALID,0,VALID,90.6209,VALID,-0.0339617,VALID,18.3407,VALID,188,VALID,1.14556,
2001-01-10, 02:52:00,VALID,916.305,VALID,0,VALID,90.8511,VALID,-0.0169808,VALID,18.331,VALID,188,VALID,1.02578,
2001-01-10, 02:53:00,VALID,916.282,VALID,0,VALID,90.9261,VALID,-0.0339617,VALID,18.3218,VALID,191,VALID,1.05962,
2001-01-10, 02:54:00,VALID,916.261,VALID,0,VALID,91.1651,VALID,0,VALID,18.3255,VALID,194,VALID,0.799548,
2001-01-10, 02:55:00,VALID,916.229,VALID,0,VALID,91.1931,VALID,0,VALID,18.2987,VALID,193,VALID,0.921258,
2001-01-10, 02:56:00,VALID,916.205,VALID,0,VALID,90.8333,VALID,-0.0169808,VALID,18.299,VALID,190,VALID,1.04387,
2001-01-10, 02:57:00,VALID,916.177,VALID,0,VALID,90.6629,VALID,-0.0169808,VALID,18.3054,VALID,200,VALID,1.02576,
2001-01-10, 02:58:00,VALID,916.155,VALID,0,VALID,90.6946,VALID,-0.0169808,VALID,18.3177,VALID,213,VALID,1.09087,
2001-01-10, 02:59:00,VALID,916.151,VALID,0,VALID,90.2127,VALID,-0.0339617,VALID,18.3576,VALID,214,VALID,1.0959,
2001-01-10, 03:00:00,VALID,916.137,VALID,0,VALID,90.2229,VALID,-0.0169808,VALID,18.3728,VALID,216,VALID,0.874566,
2001-01-10, 03:01:00,VALID,916.137,VALID,0,VALID,90.3729,VALID,-0.0169808,VALID,18.3954,VALID,210,VALID,0.811444,
2001-01-10, 03:02:00,VALID,916.142,VALID,0,VALID,89.9648,VALID,0,VALID,18.3956,VALID,211,VALID,0.916118,
2001-01-10, 03:03:00,VALID,916.15,VALID,0,VALID,90.364,VALID,-0.0339617,VALID,18.4088,VALID,217,VALID,0.769643,
2001-01-10, 03:04:00,VALID,916.139,VALID,0,VALID,90.3399,VALID,0,VALID,18.4187,VALID,200,VALID,0.885135,
2001-01-10, 03:05:00,VALID,916.135,VALID,0,VALID,89.9775,VALID,-0.0169808,VALID,18.3991,VALID,190,VALID,1.02529,
2001-01-10, 03:06:00,VALID,916.137,VALID,0,VALID,90.2064,VALID,-0.0679233,VALID,18.4021,VALID,183,VALID,0.978125,
2001-01-10, 03:07:00,VALID,916.146,VALID,0,VALID,90.5586,VALID,-0.0169808,VALID,18.3829,VALID,169,VALID,0.890224,
2001-01-10, 03:08:00,VALID,916.159,VALID,0,VALID,91.1944,VALID,-0.0339617,VALID,18.3707,VALID,153,VALID,0.538194,
2001-01-10, 03:09:00,VALID,916.17,VALID,0,VALID,91.6242,VALID,-0.0509425,VALID,18.3059,VALID,138,VALID,0.406867,
2001-01-10, 03:10:00,VALID,916.172,VALID,0,VALID,92.5016,VALID,-0.0679233,VALID,18.2217,VALID,118,VALID,0.25293,
2001-01-10, 03:11:00,VALID,916.172,VALID,0,VALID,92.6529,VALID,-0.0509425,VALID,18.1894,VALID,118,VALID,0.0557432,
2001-01-10, 03:12:00,VALID,916.177,VALID,0,VALID,92.686,VALID,-0.0509425,VALID,18.134,VALID,153,VALID,0.322852,
2001-01-10, 03:13:00,VALID,916.167,VALID,0,VALID,92.1875,VALID,-0.0849042,VALID,18.096,VALID,180,VALID,0.880609,
2001-01-10, 03:14:00,VALID,916.155,VALID,0,VALID,91.8416,VALID,-0.0339617,VALID,18.0694,VALID,178,VALID,1.28345,
2001-01-10, 03:15:00,VALID,916.127,VALID,0,VALID,91.7386,VALID,-0.0169808,VALID,18.0983,VALID,178,VALID,1.15224,
2001-01-10, 03:16:00,VALID,916.116,VALID,0,VALID,92.0184,VALID,-0.0169808,VALID,18.1338,VALID,183,VALID,0.638421,
2001-01-10, 03:17:00,VALID,916.107,VALID,0,VALID,92.5728,VALID,-0.0169808,VALID,18.1273,VALID,175,VALID,0.214844,
2001-01-10, 03:18:00,VALID,916.112,VALID,0,VALID,92.9098,VALID,-0.0169808,VALID,18.1047,VALID,161,VALID,0.52168,
2001-01-10, 03:19:00,VALID,916.114,VALID,0,VALID,93.2595,VALID,-0.0339617,VALID,18.0667,VALID,154,VALID,0.821957,
2001-01-10, 03:20:00,VALID,916.102,VALID,0,VALID,93.4706,VALID,-0.0169808,VALID,17.9982,VALID,144,VALID,0.947917,
2001-01-10, 03:21:00,VALID,916.085,VALID,0,VALID,93.5214,VALID,-0.0339617,VALID,17.9571,VALID,164,VALID,0.984786,
2001-01-10, 03:22:00,VALID,916.077,VALID,0,VALID,93.5189,VALID,-0.0509425,VALID,17.9179,VALID,177,VALID,1.06973,
2001-01-10, 03:23:00,VALID,916.081,VALID,0,VALID,93.6384,VALID,-0.0509425,VALID,17.9082,VALID,180,VALID,1.05078,
2001-01-10, 03:24:00,VALID,916.077,VALID,0,VALID,93.7656,VALID,-0.0339617,VALID,17.8888,VALID,176,VALID,0.873798,
2001-01-10, 03:25:00,VALID,916.064,VALID,0,VALID,93.9678,VALID,0,VALID,17.8819,VALID,168,VALID,0.686678,
2001-01-10, 03:26:00,VALID,916.049,VALID,0,VALID,94.1572,VALID,-0.0169808,VALID,17.8602,VALID,160,VALID,0.727564,
2001-01-10, 03:27:00,VALID,916.039,VALID,0,VALID,94.3734,VALID,-0.0509425,VALID,17.8021,VALID,154,VALID,0.910857,
2001-01-10, 03:28:00,VALID,916.033,VALID,0,VALID,94.2195,VALID,-0.0169808,VALID,17.7629,VALID,180,VALID,1.25486,
2001-01-10, 03:29:00,VALID,916.029,VALID,0,VALID,94.3543,VALID,0,VALID,17.7666,VALID,199,VALID,0.991386,
2001-01-10, 03:30:00,VALID,916.022,VALID,0,VALID,94.4942,VALID,-0.0339617,VALID,17.779,VALID,215,VALID,1.0408,
2001-01-10, 03:31:00,VALID,916.011,VALID,0,VALID,94.6621,VALID,-0.0169808,VALID,17.7954,VALID,222,VALID,1.06163,
2001-01-10, 03:32:00,VALID,915.998,VALID,0,VALID,94.6481,VALID,-0.0169808,VALID,17.8178,VALID,223,VALID,0.804487,